FLOCK 3P-72 (42051 NORAD) Tracking and Keplerian Element Data

This shows tracking and keplerian element data for the satellite.

Feedback or suggestion? Click here.




ElementValue
Catalog42051
NameFLOCK 3P-72
Epoch Orbit17161
Epoch Day94.15531425
Epoch Year2020
RAAN163.8071
Inclination97.375
Eccentricity0.0007157
Argument of Perigee189.9611
Mean Anonmoly170.1487
Mean Motion15.27246754
Decay Rate3.105E-05
L11 42051U 17008DH 20094.15531425 .00003105 00000-0 11900-3 0 9992
L22 42051 97.3750 163.8071 0007157 189.9611 170.1487 15.27246754171613

Live tracking and technical data element details for FLOCK 3P-72 (NORAD 42051). FLOCK 3P-72 can be tracked NOW for your location showing map with azimuth and elevation plus other details from your city location.

Track the satellite on the map from your city or location and see movement details for azimuth, elevation, latitude, longitude, range, height, and movement on the map or in text.







IsCatalogInMostPopularTable: catalog: 42051, numindb: 426
Update: records affected: 1



GetName: 42051 FLOCK 3P-72

Hit Count: updated at: Thu, 09 Apr 2020 17:48:33 GMT